Location: 81360 Arifat, France
(43.7204°N, 2.3408°E)
Time: 03:19:25
(UTC+01:00)

Explorer 7 - Visible Passes

Search period start: 05 December 2025 00:00
Search period end: 15 December 2025 00:00
Orbit: 436 x 554 km, 50.3° (Epoch: 04 December)

Date Brightness Start Highest point End Pass type
(mag) Time Alt. Az. Time Alt. Az. Time Alt. Az.
08 Dec 9.1 19:55:19 10° SW 19:56:07 16° SW 19:56:07 16° SW visible
09 Dec 7.9 19:31:53 10° SW 19:33:58 32° SW 19:33:58 32° SW visible
10 Dec 6.5 19:08:25 10° SW 19:11:43 59° SSE 19:11:43 59° SSE visible
11 Dec 6.5 18:44:54 10° SW 18:48:24 60° SSE 18:49:22 41° E visible
11 Dec 9.9 20:23:51 10° W 20:23:52 10° W 20:23:52 10° W visible
12 Dec 6.6 18:21:21 10° SW 18:24:51 60° SSE 18:26:55 22° ENE visible
12 Dec 9.1 20:00:17 10° W 20:01:25 18° WNW 20:01:25 18° WNW visible
13 Dec 6.6 17:57:44 10° SW 18:01:16 59° SSE 18:04:22 12° ENE visible
13 Dec 8.2 19:36:40 10° W 19:38:52 28° NW 19:38:52 28° NW visible
14 Dec 7.4 19:13:01 10° W 19:16:15 35° NNW 19:16:15 35° NNW visible
